TimeCST,TemperatureF,Dew PointF,Humidity,Sea Level PressureIn,VisibilityMPH,Wind Direction,Wind SpeedMPH,Gust SpeedMPH,PrecipitationIn,Events,Conditions,WindDirDegrees,DateUTC
12:53 AM,51.1,46.9,86,29.96,10.0,NW,4.6,-,N/A,,Overcast,310,2012-11-07 06:53:00
1:53 AM,50.0,46.0,86,29.95,10.0,WNW,4.6,-,N/A,,Overcast,300,2012-11-07 07:53:00
2:53 AM,50.0,46.9,89,29.95,10.0,NW,5.8,-,N/A,,Mostly Cloudy,310,2012-11-07 08:53:00
3:53 AM,48.9,46.0,90,29.96,9.0,WNW,4.6,-,N/A,,Clear,300,2012-11-07 09:53:00
4:53 AM,46.9,45.0,93,29.96,9.0,WNW,3.5,-,N/A,,Clear,290,2012-11-07 10:53:00
5:53 AM,46.0,44.1,93,29.98,7.0,Calm,Calm,-,N/A,,Clear,0,2012-11-07 11:53:00
6:53 AM,46.9,45.0,93,29.99,7.0,WNW,3.5,-,N/A,,Clear,290,2012-11-07 12:53:00
7:53 AM,50.0,45.0,83,30.00,10.0,NNW,10.4,17.3,N/A,,Clear,330,2012-11-07 13:53:00
8:53 AM,54.0,44.1,69,30.00,10.0,NNW,15.0,18.4,N/A,,Clear,330,2012-11-07 14:53:00
9:53 AM,57.9,42.1,56,30.00,10.0,WNW,13.8,17.3,N/A,,Partly Cloudy,300,2012-11-07 15:53:00
10:53 AM,60.1,39.9,47,29.98,10.0,NW,10.4,-,N/A,,Clear,310,2012-11-07 16:53:00
11:53 AM,62.1,37.0,39,29.94,10.0,NW,6.9,19.6,N/A,,Scattered Clouds,310,2012-11-07 17:53:00
12:53 PM,64.0,34.0,33,29.92,10.0,NW,12.7,23.0,N/A,,Scattered Clouds,310,2012-11-07 18:53:00
1:53 PM,63.0,33.1,33,29.91,10.0,NNW,17.3,21.9,N/A,,Clear,330,2012-11-07 19:53:00
2:53 PM,62.1,33.1,34,29.91,10.0,NW,12.7,18.4,N/A,,Mostly Cloudy,310,2012-11-07 20:53:00
3:53 PM,61.0,34.0,36,29.93,10.0,NNW,6.9,-,N/A,,Clear,330,2012-11-07 21:53:00
4:53 PM,55.9,36.0,47,29.95,10.0,NNW,5.8,-,N/A,,Mostly Cloudy,340,2012-11-07 22:53:00
5:53 PM,55.0,37.9,53,29.98,10.0,NNW,3.5,-,N/A,,Overcast,330,2012-11-07 23:53:00
6:53 PM,55.0,39.9,57,30.02,10.0,North,16.1,24.2,0.00,,Overcast,360,2012-11-08 00:53:00
7:53 PM,52.0,41.0,66,30.05,10.0,North,8.1,-,N/A,,Scattered Clouds,360,2012-11-08 01:53:00
8:53 PM,48.9,41.0,74,30.07,10.0,NNW,4.6,-,N/A,,Clear,340,2012-11-08 02:53:00
9:53 PM,46.9,39.9,77,30.09,10.0,NNW,4.6,-,N/A,,Clear,340,2012-11-08 03:53:00
10:53 PM,46.0,39.9,79,30.09,10.0,Calm,Calm,-,N/A,,Clear,0,2012-11-08 04:53:00
11:53 PM,44.1,39.0,82,30.09,10.0,NNW,4.6,-,N/A,,Clear,340,2012-11-08 05:53:00